Address 0x582af841f148a911100e9d103d56a137ef6efd30 9

 
Ad
Ad
Txn Hash Method
Block
From
To
Value [Txn Fee]
0x488ff5144a27143060a098f4aa77077768e5406069e5bfba572cbb08d9d618feTransfer217982862021-11-25 21:19:542 days 1 hr ago0x582af841f148a911100e9d103d56a137ef6efd30OUT USD Coin0 MATIC0.001037916
0x89923114ec530b86fa5dfbd7ea0fcf3c90c05a4925fd785717396edc8087edc0Transfer217982392021-11-25 21:18:162 days 1 hr ago0x582af841f148a911100e9d103d56a137ef6efd30OUT USD Coin0 MATIC0.00209682
0xd778dec5a180ad69680967b672a8537838e53c64cea8b0654702b3ba36fddbc0Swap Exact Token...217982032021-11-25 21:17:002 days 1 hr ago0x582af841f148a911100e9d103d56a137ef6efd30OUT SushiSwap: SushiV2Router020 MATIC0.005317851
0xdb85a466c7437e3f1cb4c25d4e568c35a8f834a3a8781db7510a3ddb6f7ea59fApprove217981962021-11-25 21:16:462 days 1 hr ago0x582af841f148a911100e9d103d56a137ef6efd30OUT 0xefee2de82343be622dcb4e545f75a3b9f50c272d0 MATIC0.001539912
0x90f12bec2d1597e80f34040a967758a05391313520c5c70f4e3444e48304d33bTransfer194522412021-09-24 8:52:0964 days 14 hrs ago0x582af841f148a911100e9d103d56a137ef6efd30OUT0x7159662828c28ff8d8d566505892cc0aa87db3a584 MATIC0.0000504
0x0764b08a464592f88d8cc84904e0c272dbe3203b5fdab33bb8c6ee4a8ef5bb89Swap Exact Token...194522142021-09-24 8:51:1164 days 14 hrs ago0x582af841f148a911100e9d103d56a137ef6efd30OUT QuickSwap: Router0 MATIC0.000310704
0x2ebc55ec8b67378c9471c02f6fc8154cbeaedbcb37740feb918cc0da00484187Approve194521942021-09-24 8:50:3164 days 14 hrs ago0x582af841f148a911100e9d103d56a137ef6efd30OUT 0x7ceb23fd6bc0add59e62ac25578270cff1b9f6190 MATIC0.00015555096
0x8515afe2c1b9586a6a04aa5bf36afc29103fb97783196f312ef06640e6d9ae3bCreate Order194521202021-09-24 8:47:5964 days 14 hrs ago0x582af841f148a911100e9d103d56a137ef6efd30OUT 0xa9938c13f2c446c7decd9d9ebee6db8100ca41570 MATIC0.003477033
0xaf4f11bbd77cbc0587b8da5582210739ffc92a9525fdcf5955558d156470fec1Approve194521062021-09-24 8:47:3164 days 14 hrs ago0x582af841f148a911100e9d103d56a137ef6efd30OUT USD Coin0 MATIC0.000525906
0x4fde9787c68c72d79f343da013548bae5b6aaf7838b5576688e74a8cd8a5b71aClaim193953452021-09-22 19:48:3266 days 3 hrs ago0x582af841f148a911100e9d103d56a137ef6efd30OUT 0xdeb1f826c512eee2fa9398225a3401a0dd5311e20 MATIC0.000444539016
0x89152a8035a567fe81192439ec2153fad6dc879ddb4025c0bc36065b5cfef4ccTransfer192886022021-09-19 22:12:3869 days 52 mins ago0x582af841f148a911100e9d103d56a137ef6efd30OUT USD Coin0 MATIC0.000075456
0xe93c4b7a8326c8947ef5333dfe1f8a0ddd02b3eb19b74516adb029e0c7355875Transfer187672112021-09-05 7:34:1783 days 15 hrs ago0x582af841f148a911100e9d103d56a137ef6efd30OUT0xf6e021de1d93252e1910c06ff76035cc6df20ded65.3 MATIC0.0000252
0x67423c3f0792b6851875093ddb0540d06980499052703510bd8ef118fe3b3215Swap Exact Token...187671352021-09-05 7:31:4183 days 15 hrs ago0x582af841f148a911100e9d103d56a137ef6efd30OUT SushiSwap: SushiV2Router020 MATIC0.000103951
0x29e0f74f0965ac1d120b544845bf0b8992978335face02bdfebf1a4954615874Approve187671192021-09-05 7:31:0983 days 15 hrs ago0x582af841f148a911100e9d103d56a137ef6efd30OUT USD Coin0 MATIC0.00003821
0xbe40e86c26b21072b454e65b29b79f3050d08e549469defbfd0e19307032beafApprove187671042021-09-05 7:30:3983 days 15 hrs ago0x582af841f148a911100e9d103d56a137ef6efd30OUT USD Coin0 MATIC0.00005811
0x192e330cf4c07f8949984ce2f174e2cec25f1144d1977be7953c8dcdca462733Swap Exact Token...187670602021-09-05 7:29:0783 days 15 hrs ago0x582af841f148a911100e9d103d56a137ef6efd30OUT SushiSwap: SushiV2Router020 MATIC0.000111106
0x459c171e921fe7baaf3e73a2e7f0bf18c6d284b4f4fe30f6e296f9dd3d6812d8Approve187670332021-09-05 7:28:0983 days 15 hrs ago0x582af841f148a911100e9d103d56a137ef6efd30OUT 0x2b9e7ccdf0f4e5b24757c1e1a80e311e34cb10c70 MATIC0.000051784
0xeea417d15fd9d095f0450936386cbc2e285db20582bdaec75e1f0f501d34127dSwap Exact Token...187670052021-09-05 7:27:1383 days 15 hrs ago0x582af841f148a911100e9d103d56a137ef6efd30OUT SushiSwap: SushiV2Router020 MATIC0.000230586
0x8ce6e0597bc2aa478d6ad135c31e32129e7ef6c22f6180196847fe19f45f7cceApprove187669942021-09-05 7:26:5183 days 15 hrs ago0x582af841f148a911100e9d103d56a137ef6efd30OUT SushiSwap: SUSHI Token0 MATIC0.000051784
0x7b0ab5e88b773d18e479d1dadf1eaf671f4bab7f9c249dad6e7b7f5535b6099aSwap Exact Token...187669652021-09-05 7:25:4983 days 15 hrs ago0x582af841f148a911100e9d103d56a137ef6efd30OUT SushiSwap: SushiV2Router020 MATIC0.000169565
0x9a8bf81cb4ecf99df87d92cded7f3dbe587d7a044b7da41550bcec130bf9e513Approve187669542021-09-05 7:25:2783 days 15 hrs ago0x582af841f148a911100e9d103d56a137ef6efd30OUT USD Coin0 MATIC0.00005811
0x0db1f940c69f8c1896d862c1dd65ae56621f00e0b1ad3f9d1d9044301d90af2fSwap Exact ETH F...187669202021-09-05 7:24:1983 days 15 hrs ago0x582af841f148a911100e9d103d56a137ef6efd30OUT QuickSwap: Router65 MATIC0.000114324
0xf61ffa555a09e33eb4df78470953d9af9de13cf8be0748bca55cd52a3fd2ae65Transfer187668232021-09-05 7:20:5783 days 15 hrs ago0xf6e021de1d93252e1910c06ff76035cc6df20ded IN 0x582af841f148a911100e9d103d56a137ef6efd3067 MATIC0.0000252
0x3564c5598e7a826a0919500f3c039c6d1961b501bffaaf5f1b2363cd09bd0c03Transfer187666352021-09-05 7:14:2983 days 15 hrs ago0x582af841f148a911100e9d103d56a137ef6efd30OUT0xf6e021de1d93252e1910c06ff76035cc6df20ded0.09 MATIC0.0000252
0xd482f0af060b664a5137b55f7f2ecc41821518368352329abc5af1a23a356f00Transfer187517212021-09-04 21:26:3184 days 1 hr ago0xf6e021de1d93252e1910c06ff76035cc6df20ded IN 0x582af841f148a911100e9d103d56a137ef6efd300.1 MATIC0.0000252
[ Download CSV Export 
Latest 2 internal transactions
Parent Txn Hash Block From To Value
0x0764b08a464592f88d8cc84904e0c272dbe3203b5fdab33bb8c6ee4a8ef5bb89194522142021-09-24 8:51:1164 days 14 hrs ago QuickSwap: Router0x582af841f148a911100e9d103d56a137ef6efd3083.996928663000965212 MATIC
0x67423c3f0792b6851875093ddb0540d06980499052703510bd8ef118fe3b3215187671352021-09-05 7:31:4183 days 15 hrs ago SushiSwap: SushiV2Router020x582af841f148a911100e9d103d56a137ef6efd3063.506486667084049866 MATIC
[ Download CSV Export 
Loading

Contract Name:
0 MATIC

Compiler Version
0

Optimization Enabled:
0 MATIC

Other Settings:
-NA-
Block Transaction Gas Used Reward
Age Block Fee Address BC Fee Address Voting Power Jailed Incoming
Block Uncle Number Difficulty Gas Used Reward
Loading
Loading
Make sure to use the "Vote Down" button for any spammy posts, and the "Vote Up" for interesting conversations.